Terug naar catalogus

STARLINK-35593

ActiefCommunicatieVLEO
NORAD 66107·PAYLOAD·🇺🇸 United States

Gelanceerd Oct 19, 2025 vanaf Vandenberg Space Force Base

Loading…

Volgende Passages (komende 24 uur)

TLE

VersSource: CelesTrak SupGP

Epoch: Sep 15, 2026, 02:59 UTC

1 66107C 25236X   26258.12479167  .00029109  00000+0  85996-3 0  2586
2 66107  53.1588 300.7193 0001285  83.3885 278.6094 15.34378279    12

Volg STARLINK-35593 in realtime met AllMySat

Download on the App Store